LFOELFRG

Guest
Details From LFOE - FAUVILLE
To LFRG - Deauville Saint Gatien
Flight Number -
Tags generated
Created
Modified
Stats Distance 46 nm / 86 km
Max Altitude 1,500 ft / 457 m
Waypoints 3
Social Downloads 0
Likes 0
Share VATSIM

Download

Looking for another format? Having issues loading an existing format? Contact us
Advertisement - Login to hide

Notes

Basic altitude profile: - Ascent Rate: 2500ft/min - Ascent Speed: 250kts - Cruise Altitude: 35000ft - Cruise Speed: 420kts - Descent Rate: 1500ft/min - Descent Speed: 250kts

Route

LFOE DVL LFRG

ID Type Via Altitude Latitude Longitude Leg Dist Tot Dist Heading (true) Name
O LFOE APT - 0 ft / 0 m 49.02867˚ 1.21987˚ - 0 nm - FAUVILLE
DVL VOR - 1,500 ft / 457 m 49.31075˚ 0.31272˚ 39 nm 39 nm 296° / 295° DEAUVILLE SAINT GATIEN VOR
O LFRG APT - 0 ft / 0 m 49.36530˚ 0.15432˚ 7 nm 46 nm 298° / 298° Deauville Saint Gatien

Altitude Profile

Advertisement - Login to hide

LFOE

Details ICAO LFOE
Name FAUVILLE
Region France
Timezone Europe/Paris (UTC+1.0)
Stats Elevation 464 ft / 141 m (AMSL)
Location 49.028669° 1.219866°
Runways 1
Magnetic Variation 0.226° E

METAR

LFOE 170300Z AUTO 27005KT 9999 FEW029 BKN040 02/01 Q1023

Decode

TAF

TAF TAF LFOE 170200Z 1703/1803 27006KT 9999 FEW030 PROB40 TEMPO 1704/1707 4000 BR BECMG 1718/1720 20010KT BKN005 TEMPO 1720/1803 3000 RADZ BKN003

Decode

Departure Runways

ID Width Length Bearing (true) Bearing (mag) Surface Threshold Offset Overrun Length
04 148 ft / 45 m 9,836 ft / 2,998 m 39.78° 39.55° Asphalt 0 ft / 0 m 0 ft / 0 m
22 148 ft / 45 m 9,836 ft / 2,998 m 219.80° 219.57° Asphalt 0 ft / 0 m 0 ft / 0 m

LFRG

Details ICAO LFRG (DOL)
Name Deauville Saint Gatien
Region France
Timezone Europe/Paris (UTC+1.0)
Stats Elevation 479 ft / 146 m (AMSL)
Location 49.365296° 0.154324°
Runways 1
Magnetic Variation 0.141° W

METAR

LFRG 170300Z AUTO 36003KT 320V030 9999 BKN023 05/02 Q1024

Decode

TAF

Not found

Destination Runways

ID Width Length Bearing (true) Bearing (mag) Surface Threshold Offset Overrun Length
12 148 ft / 45 m 8,344 ft / 2,543 m 117.22° 117.36° Asphalt 1,476 ft / 450 m 0 ft / 0 m
30 148 ft / 45 m 8,344 ft / 2,543 m 297.25° 297.39° Asphalt 1,378 ft / 420 m 0 ft / 0 m

Approach Navaids

Runway Type Ident Frequency Range Bearing (true) Bearing (mag) Slope Elevation
30 Localiser DV 111.55 MHz 18 nm / 33 km 297.22° 297.36° - 479 ft / 146 m (AMSL)
30 Glidescope DV 111.55 MHz 10 nm / 19 km 297.23° 297.37° 3.00° 479 ft / 146 m (AMSL)
30 DME DV 111.55 MHz 18 nm / 33 km - - - 466 ft / 142 m (AMSL)

Popular Alternatives